RH
100 99 98 99 99 98 96 96 99 98 99 99 93 82 86 81 75 77 84 76 81 78 73 73 73 66 64 65 56 60 57 64 60 59 54 47 48 34 40 29 48 52 65 70 63 60 57 30 40 40 31 33 38 39
96 85 76 74 79 91 82 88 94 98 99 100 100 100 100 100 99 94 84 80 86 96 81 78 69 74 78 72 69 66 55 62 54 54 48 50 52 53 46 46 37 48 36 31 43 37 30 41 34 32 35 38 38 36
67 70 84 88 76 71 65 63 62 65 69 79 89 95 98 99 100 100 100 100 100 100 96 98 86 74 69 65 71 74 65 65 62 60 54 49 58 43 53 45 38 36 36 44 42 32 29 29 32 36 39 41 41 42
42 44 48 51 55 59 63 66 64 64 67 67 66 66 68 70 86 98 100 100 100 100 100 88 81 82 80 76 74 72 69 73 75 78 67 66 68 46 53 48 48 39 40 45 45 38 36 34 35 37 40 42 46 47
49 47 40 39 38 39 46 47 46 52 59 67 69 68 68 68 68 67 68 88 100 100 100 98 88 77 81 81 84 91 92 93 89 90 97 94 70 79 74 64 68 51 50 56 60 47 49 51 56 57 65 69 72 71
57 42 40 40 38 38 39 36 33 31 33 33 34 43 58 62 60 64 99 99 99 99 100 100 99 86 82 82 82 86 85 100 100 97 98 96 82 93 100 73 47 53 65 90 97 98 80 82 88 90 99 99 99 100
88 92 80 50 36 34 34 33 32 29 27 26 25 27 32 42 63 85 96 99 98 96 99 98 86 94 90 91 93 98 100 99 99 97 99 94 92 98 100 93 94 86 100 98 96 82 84 93 97 98 97 98 97 97
49 66 82 92 88 70 47 32 28 26 24 22 21 20 21 35 46 61 79 91 90 91 94 98 83 76 85 92 85 98 99 99 99 98 99 92 80 85 98 84 79 86 98 93 92 93 94 86 80 85 82 64 70 81
78 55 51 60 77 77 85 85 61 39 29 25 25 23 37 74 96 99 99 98 98 99 98 98 83 72 82 91 84 99 99 85 70 81 68 61 62 88 91 83 81 71 66 67 63 58 53 50 45 42 41 42 46 48
92 88 79 78 81 64 64 68 76 73 65 49 34 44 93 94 83 67 82 99 97 98 99 96 93 84 75 64 68 79 90 89 91 75 87 88 87 97 84 61 61 58 55 55 72 54 46 42 49 56 55 57 58 54
96 93 88 76 68 70 56 43 47 62 64 54 33 62 65 45 47 79 92 94 98 94 98 89 93 91 95 80 75 79 89 79 82 67 69 77 88 87 64 55 54 62 61 61 74 68 65 72 79 72 66 64 68 64
90 90 84 86 69 73 73 55 53 64 69 72 68 60 77 89 96 90 84 90 91 93 91 87 76 86 89 93 85 73 82 76 76 89 76 82 58 63 67 64 62 65 68 84 90 92 92 92 80 80 83 82 81 78
76 70 82 89 88 71 70 77 46 53 77 77 80 86 91 82 87 84 86 90 90 68 78 83 77 90 98 97 91 94 94 78 58 78 46 42 61 67 65 55 65 65 68 73 80 74 55 66 69 74 68 66 67 58
75 89 77 86 89 87 63 80 58 68 81 64 87 82 83 80 72 71 65 54 71 71 84 93 89 82 96 95 90 96 66 78 63 54 52 54 50 50 51 51 52 49 44 33 34 40 48 52 50 43 40 45 55 52
82 86 93 85 90 78 83 67 77 84 87 81 87 83 86 73 91 97 98 95 75 68 94 87 85 91 83 87 84 82 87 77 48 43 55 50 48 51 52 54 58 60 56 52 47 46 41 39 37 36 32 36 42 52
80 82 70 69 80 83 96 80 86 94 94 85 97 92 81 93 80 97 93 90 58 80 71 99 80 82 78 80 87 79 83 69 50 56 52 52 54 52 55 59 58 54 47 44 43 45 51 54 58 62 58 50 46 49
68 86 76 87 89 95 95 95 74 74 96 100 99 98 88 88 80 66 66 66 67 87 72 86 92 79 86 88 85 72 83 54 48 53 55 59 60 59 50 49 47 52 58 57 54 50 48 47 48 49 52 42 45 49
76 65 75 96 97 93 97 95 79 82 100 100 97 74 88 75 71 76 72 82 87 81 89 80 88 89 77 66 61 50 52 49 52 54 55 56 56 57 56 60 55 53 53 53 56 57 56 54 56 54 63 59 61 60
78 69 81 97 98 95 94 95 90 97 94 99 96 88 81 80 66 58 69 80 91 91 90 97 88 83 64 54 52 48 51 55 59 57 58 57 57 56 58 60 64 72 78 84 88 92 94 89 85 84 83 77 82 87
92 80 93 98 96 94 87 97 95 100 100 100 88 92 96 90 73 65 76 92 100 97 95 90 70 52 49 46 48 54 60 59 61 59 56 56 60 65 71 77 82 84 88 90 92 92 95 95 94 95 97 98 98 97
95 95 98 98 97 87 81 88 100 100 100 100 100 100 99 92 77 94 98 89 100 93 83 72 62 57 58 63 54 49 49 58 61 64 68 74 78 83 84 85 87 89 92 96 99 96 95 95 94 94 95 93 94 96
99 98 98 98 96 94 93 98 100 97 99 99 99 100 100 100 100 100 86 97 100 90 84 59 53 58 60 50 50 60 65 69 79 83 84 88 92 94 95 97 99 99 98 97 96 97 94 94 97 96 97 94 95 93
97 96 88 92 93 94 92 95 99 99 97 96 97 94 94 99 99 84 98 83 68 47 47 44 46 49 53 60 62 66 81 88 91 95 100 98 100 100 99 96 96 96 95 94 94 94 94 98 96 96 95 94 93 93
90 86 92 91 86 96 96 99 96 99 99 93 88 93 87 96 86 98 90 80 50 46 44 46 49 49 59 68 81 88 96 100 100 98 100 100 100 100 100 98 94 93 94 94 95 96 96 95 98 96 98 98 96 97
83 96 85 97 96 96 97 95 96 94 92 92 94 93 92 90 91 90 83 65 46 44 46 60 72 83 97 95 100 100 100 100 100 100 86 94 100 93 88 88 88 93 97 99 94 96 99 100 100 96 95 95 96 97
92 96 95 87 97 94 89 99 98 94 92 96 93 96 95 92 94 88 71 53 50 58 80 91 99 98 87 90 94 94 94 98 97 93 87 96 98 98 98 100 100 94 98 100 100 100 100 99 99 97 96 95 96 98
91 93 90 86 84 85 94 95 94 92 95 94 87 92 92 96 90 70 54 56 78 89 96 96 95 88 80 80 84 94 99 97 91 93 90 90 95 96 97 98 96 93 94 98 100 100 100 99 100 98 96 94 95 97
84 75 88 88 94 90 93 93 94 94 86 82 84 92 87 82 72 54 68 90 96 96 96 95 87 76 82 83 88 94 90 82 83 81 83 82 85 94 96 96 97 96 97 96 96 98 100 100 99 96 96 97 96 95
93 86 79 95 96 95 94 90 84 67 72 75 83 84 77 66 81 95 96 96 96 95 88 67 71 74 78 82 84 86 88 93 99 99 97 92 83 85 96 94 95 96 96 96 95 98 98 99 98 99 97 96 95 96
98 96 94 95 98 92 69 67 70 68 73 77 77 76 77 86 96 98 96 96 95 94 94 86 78 85 82 84 83 75 79 92 100 100 100 98 97 97 97 97 97 97 97 97 96 94 94 95 95 95 95 95 95 95
98 98 97 98 94 80 75 76 74 74 74 80 82 88 94 96 96 96 95 95 96 92 78 77 84 83 85 85 93 98 93 87 94 97 100 99 97 98 99 100 100 99 97 96 96 96 96 95 96 96 96 95 95 95
100 99 99 97 88 79 77 76 73 71 77 82 82 87 95 96 96 96 94 90 76 74 86 91 86 83 84 86 91 99 100 100 100 100 98 97 97 97 99 100 97 96 96 96 96 96 96 96 96 96 95 96 96 96
98 100 98 96 93 82 77 79 79 81 79 80 95 95 95 96 96 94 90 86 94 100 97 92 89 88 85 86 90 95 95 98 99 100 99 100 100 100 100 97 97 98 97 96 96 96 95 96 96 96 96 96 96 96
Wind_Speed
5 7 7 7 7 9 10 12 12 13 15 18 20 20 18 16 13 11 11 8 6 7 13 12 8 8 6 5 5 2 3 4 4 5 4 5 6 7 7 11 6 10 9 6 7 8 10 7 7 6 6 11 10 10
9 9 8 8 7 7 8 9 10 10 10 9 11 14 16 17 18 16 14 14 11 12 13 19 25 23 15 13 13 7 9 4 5 5 4 4 5 2 6 12 3 6 10 8 9 6 2 4 15 17 18 22 22 22
7 8 7 8 8 9 9 9 9 9 10 12 13 13 13 12 12 14 14 18 18 15 19 13 6 8 11 15 15 16 16 14 11 9 7 5 11 8 11 12 16 12 13 8 11 11 16 23 23 22 23 28 31 30
10 10 10 10 10 11 11 11 11 10 10 10 10 11 11 11 12 13 13 10 11 8 5 11 17 18 12 9 12 14 25 20 15 8 10 6 8 10 11 14 14 13 15 13 20 22 28 33 31 29 33 34 33 29
10 10 11 11 11 11 11 12 12 13 12 12 12 11 11 11 11 11 13 16 14 9 5 6 19 27 30 31 32 25 25 22 21 9 5 4 7 8 11 12 13 20 19 14 17 25 25 30 30 32 28 22 19 18
11 11 11 11 10 11 11 12 12 13 13 14 14 15 15 13 12 11 4 5 7 9 6 3 5 8 13 14 17 20 15 15 15 7 5 6 8 7 4 10 18 21 24 25 10 23 25 25 18 21 13 14 14 12
12 12 12 11 11 11 12 12 12 12 13 14 14 15 16 15 13 7 6 8 12 12 4 6 4 3 5 6 4 3 7 9 11 6 7 6 8 9 3 7 22 18 17 20 21 19 12 23 15 17 17 17 17 17
16 16 14 13 12 12 12 13 12 12 13 13 15 16 17 17 15 15 13 11 9 6 4 3 3 3 3 2 1 1 2 4 5 6 4 6 6 6 1 9 20 14 12 20 20 20 16 16 19 16 14 18 18 15
13 15 16 16 15 14 14 13 13 13 14 14 15 18 16 6 3 4 6 8 9 8 4 4 2 2 4 1 3 3 2 3 5 5 6 5 6 1 2 4 4 3 6 5 10 7 6 7 8 9 9 11 12 15
15 14 14 14 15 16 16 16 15 15 14 15 14 4 2 2 7 13 4 3 6 7 6 3 2 3 5 4 2 2 3 2 2 1 5 3 2 15 6 4 3 2 1 1 2 5 7 9 12 15 14 15 17 20
15 14 14 15 13 13 14 13 13 14 12 9 4 3 9 18 9 3 3 4 5 3 4 3 2 4 2 3 2 2 3 3 3 2 2 2 3 5 8 10 9 11 10 12 13 15 14 17 19 21 22 24 24 24
13 15 15 14 12 11 12 11 10 9 6 7 9 14 8 2 2 3 2 3 3 2 4 4 5 4 3 2 3 2 3 2 4 3 3 2 3 13 7 13 14 15 17 19 19 22 23 25 25 27 27 27 27 29
12 14 15 13 11 10 10 9 9 8 5 8 3 2 2 2 3 3 1 1 2 3 5 5 6 4 3 2 3 1 3 5 7 3 4 1 5 3 7 10 11 13 15 17 20 23 26 28 28 27 29 29 27 29
16 16 16 13 12 10 9 7 7 4 2 2 2 3 3 2 3 1 3 3 3 2 5 4 4 3 2 2 2 2 2 3 4 4 9 4 7 11 16 13 15 20 22 24 28 31 31 32 33 35 35 34 30 32
17 16 15 14 12 11 9 6 4 4 3 4 3 3 3 4 4 3 5 6 5 6 4 4 2 1 3 3 2 3 3 4 3 3 3 7 12 10 20 20 21 23 26 29 31 31 33 34 35 36 36 37 38 37
14 13 14 12 10 9 8 6 4 3 2 4 3 2 4 3 5 3 5 7 4 3 5 1 2 2 3 2 3 4 4 4 5 6 13 17 20 25 26 25 26 29 32 33 32 33 33 34 33 34 38 41 41 39
14 17 10 6 7 9 9 8 5 4 4 3 4 7 10 10 10 9 5 5 5 3 2 2 3 4 2 3 3 4 4 7 16 20 22 22 23 27 34 35 35 33 32 32 33 34 34 34 35 36 37 36 33 31
18 19 17 7 11 11 8 8 4 3 5 8 5 8 9 11 11 10 8 7 4 4 2 3 2 2 4 4 6 8 15 19 18 20 24 27 30 32 32 33 33 35 37 38 37 37 37 37 36 36 32 33 34 35
18 21 15 14 16 11 6 6 5 3 8 6 10 13 14 14 17 18 13 9 8 8 3 3 4 4 5 9 14 18 19 19 22 27 27 28 29 31 32 34 35 35 34 32 33 32 32 33 34 35 35 33 34 33
17 18 15 14 17 8 5 4 5 4 4 4 7 8 7 8 12 13 11 7 7 5 7 4 6 15 18 20 20 20 20 23 23 27 31 31 29 31 30 30 32 31 31 30 29 27 29 30 29 28 27 27 29 31
17 17 19 21 17 6 4 4 4 4 4 5 6 6 6 9 12 10 5 6 7 5 6 13 18 18 19 19 21 19 21 25 25 25 28 31 30 28 30 30 30 29 29 29 29 30 26 27 29 29 29 29 29 29
13 21 21 19 4 7 4 4 3 3 4 5 5 4 6 5 5 3 4 5 6 9 9 11 13 13 13 13 18 26 29 30 26 24 25 25 28 29 29 29 30 31 31 30 31 30 31 30 28 27 28 30 27 28
21 18 8 5 3 6 2 4 3 3 3 2 3 4 4 4 3 5 4 6 7 11 8 7 4 12 21 26 33 32 23 22 25 26 25 27 28 28 28 28 28 29 32 30 28 29 28 25 25 25 26 29 30 31
15 6 3 4 2 3 3 3 3 2 2 2 2 4 2 2 5 2 3 4 5 4 1 4 16 25 33 29 24 22 24 24 26 28 25 27 28 29 28 29 27 25 25 23 23 23 22 25 27 30 29 28 28 27
5 2 3 2 3 2 1 1 1 2 2 1 2 3 1 3 2 2 2 4 2 3 5 20 29 23 17 22 23 24 23 23 24 29 29 26 28 31 30 27 26 24 21 22 30 30 26 25 26 28 27 26 25 25
2 3 5 8 4 4 5 3 4 4 1 2 5 3 2 2 2 4 3 1 3 10 20 20 16 20 23 24 28 30 28 24 24 27 27 26 25 24 26 27 28 29 24 26 26 26 28 28 27 26 25 25 23 24
3 3 4 5 4 3 2 2 2 2 3 4 2 1 0 2 4 3 2 3 12 18 13 10 15 21 27 29 27 26 23 23 23 23 25 25 23 22 22 23 27 30 26 26 26 26 27 27 26 26 25 25 25 24
1 5 4 5 5 5 2 2 3 4 3 4 4 2 3 5 3 3 6 16 15 7 9 15 21 24 24 23 23 24 24 26 25 25 26 24 24 25 27 29 29 27 27 26 25 24 24 24 23 23 25 25 24 21
1 2 3 3 4 4 7 7 6 6 5 9 5 3 5 6 8 15 13 4 4 8 17 26 30 28 29 27 25 25 26 26 26 29 33 36 37 33 30 29 29 31 31 30 26 21 20 19 20 19 19 19 19 17
2 4 2 3 3 4 5 9 7 10 11 13 14 15 13 12 7 3 2 3 8 20 28 31 32 30 33 31 31 30 27 24 22 25 31 34 35 33 32 30 31 32 31 26 23 23 19 18 17 16 15 15 14 13
3 3 3 5 5 6 10 12 17 21 22 19 15 14 8 4 6 6 7 16 22 27 32 32 29 33 32 30 28 30 32 29 28 27 26 27 29 29 29 29 30 29 26 22 23 22 21 19 17 15 14 12 11 9
3 4 2 2 5 8 15 5 7 10 9 3 2 1 1 4 4 3 14 19 26 30 25 27 34 34 28 25 25 23 24 28 28 28 27 27 26 26 27 29 26 24 22 21 21 19 17 16 15 14 12 10 8 7
4 4 5 5 5 5 5 9 5 4 2 1 1 1 3 4 5 12 19 19 27 22 26 32 32 29 25 23 22 24 25 25 26 25 24 23 23 23 24 23 22 21 19 19 19 17 14 13 13 12 11 10 9 8
Wind_Direction
329 310 300 298 295 291 295 298 298 289 283 282 285 285 284 283 288 295 292 295 283 271 278 272 261 257 261 256 272 82 265 202 188 229 241 235 253 248 259 258 173 189 185 190 210 237 274 128 133 218 343 326 328 298
351 352 355 354 345 331 316 302 296 291 286 287 284 285 285 282 280 280 277 284 267 249 266 277 281 268 248 246 274 253 270 309 248 250 245 293 264 253 279 268 200 252 221 258 210 231 342 218 260 268 293 294 300 299
305 313 328 335 335 337 341 344 346 337 321 307 299 294 291 289 278 263 256 269 274 267 283 266 271 291 279 251 245 240 252 249 243 243 296 277 270 293 274 270 271 241 242 250 282 266 285 290 294 289 292 286 288 288
294 299 303 305 307 311 315 319 323 327 329 329 330 330 323 309 288 280 275 266 263 278 260 269 273 280 274 244 219 244 254 253 261 271 262 265 267 254 265 279 275 280 300 272 266 277 280 278 281 289 300 303 302 302
302 301 302 303 305 306 310 312 312 313 313 315 319 322 322 319 315 307 291 270 263 249 299 282 276 275 279 270 270 274 246 245 249 257 233 245 257 266 264 275 266 267 272 269 268 279 273 287 305 314 318 322 307 299
299 298 301 302 305 308 310 313 316 315 316 315 312 309 308 311 316 319 287 266 247 270 285 290 268 274 283 266 274 276 256 238 237 252 234 223 233 195 245 268 287 326 335 352 332 315 307 318 333 325 327 334 340 345
287 294 298 299 299 301 304 308 311 313 315 318 317 314 308 300 297 288 272 283 293 313 289 290 262 232 277 287 276 307 234 222 224 248 233 254 255 217 233 272 4 2 28 20 8 330 346 32 24 24 25 19 23 20
279 276 282 290 295 300 301 303 306 309 311 314 315 313 306 296 288 282 277 270 278 290 252 264 267 256 342 284 263 267 204 225 238 241 240 229 244 228 319 32 30 35 42 52 46 50 49 43 36 25 17 17 17 8
292 285 280 275 280 286 292 301 307 308 311 315 317 315 306 308 278 271 262 261 247 220 249 238 261 324 356 333 294 292 232 265 259 246 245 259 244 189 91 32 4 17 65 82 55 46 21 5 355 348 347 339 327 320
288 286 287 281 282 279 280 285 293 301 315 320 321 317 286 267 307 309 290 235 207 213 235 256 324 270 323 322 275 307 201 231 258 248 308 246 72 141 158 232 292 299 299 189 179 309 328 326 324 316 318 318 316 314
276 284 285 282 276 284 288 289 286 291 307 325 309 278 287 308 300 233 257 232 200 204 199 239 282 286 261 275 314 330 336 279 262 88 279 345 149 207 247 259 243 249 264 277 283 297 304 298 298 299 299 299 303 308
282 280 287 280 275 278 287 299 293 291 288 296 294 294 309 294 258 256 249 294 282 39 28 7 337 318 313 297 264 258 271 278 270 141 230 224 198 225 245 286 279 275 274 276 278 282 285 285 288 290 290 291 288 293
288 291 282 285 268 280 277 288 298 289 282 300 283 273 295 234 268 236 198 78 17 2 359 337 329 316 313 285 264 277 253 250 318 234 256 356 45 7 334 330 320 314 300 287 285 288 294 291 292 287 289 290 289 291
278 280 273 274 270 266 262 270 291 261 228 265 271 279 234 199 246 225 118 24 3 312 326 319 301 302 330 279 305 240 286 287 251 247 269 95 50 349 338 316 313 310 308 304 295 295 294 293 293 296 297 297 296 297
276 279 263 263 277 259 257 252 271 204 212 244 218 242 230 288 295 192 241 301 326 321 337 317 267 267 263 269 230 295 259 240 248 308 49 2 326 309 311 304 297 302 304 302 301 299 298 300 301 302 302 301 300 300
276 267 257 261 265 250 238 216 205 186 223 244 239 266 245 271 254 235 240 268 309 268 307 289 278 268 247 246 237 233 278 258 315 360 330 327 310 308 310 309 305 302 305 304 301 298 296 295 296 295 297 299 301 303
262 259 254 275 237 219 220 184 180 211 229 233 251 244 250 271 278 297 281 297 296 253 252 176 222 245 76 237 245 218 241 292 320 317 315 312 304 304 309 311 311 311 308 305 304 303 302 303 303 300 298 303 307 305
249 254 255 217 205 200 185 178 186 242 245 237 237 251 241 256 271 280 284 283 240 221 207 238 318 238 243 253 258 269 281 297 303 303 301 299 298 301 305 303 308 309 307 306 306 304 301 300 300 299 301 304 307 306
248 246 255 195 192 181 176 192 204 253 244 262 256 261 266 274 276 283 282 264 244 230 245 229 238 232 235 252 276 296 304 307 308 304 301 301 302 303 305 306 304 305 306 306 304 299 298 300 299 300 301 302 301 300
226 239 192 190 195 170 173 191 207 247 262 271 267 269 262 258 272 281 279 263 215 200 213 228 235 254 267 282 298 306 308 306 304 304 303 305 306 307 307 306 303 303 302 303 302 305 301 301 302 301 299 299 298 299
204 222 174 186 178 164 192 200 212 240 265 265 285 291 276 279 279 278 274 244 204 221 237 243 258 271 283 294 304 311 315 310 303 301 300 304 308 307 306 307 306 302 300 299 300 307 309 304 306 307 305 307 307 306
219 186 159 174 135 177 220 231 229 268 246 264 281 259 273 278 277 257 272 210 230 240 236 274 292 302 306 318 318 318 316 319 315 310 308 309 309 310 309 308 309 306 304 303 303 302 306 309 309 307 305 306 307 307
162 151 115 118 134 186 216 206 228 229 267 296 301 272 240 255 266 322 263 239 252 277 294 312 9 341 335 332 321 318 318 314 312 310 310 310 310 309 311 312 314 312 312 312 311 308 309 311 310 313 312 311 312 312
138 121 126 139 150 162 182 187 237 268 277 258 255 276 261 282 314 258 266 274 275 291 225 340 339 328 318 320 325 323 324 321 317 317 321 322 320 319 317 317 320 318 322 319 314 311 307 304 307 307 309 310 312 314
118 151 164 119 160 138 156 198 242 244 261 233 271 270 264 319 282 262 254 274 309 15 346 333 329 328 328 326 327 323 329 327 322 321 329 332 326 324 325 327 325 326 327 312 311 316 319 317 316 317 319 321 323 322
147 182 184 186 172 190 189 206 204 214 224 257 233 268 301 281 270 252 240 295 359 340 337 335 339 339 340 337 329 329 329 330 326 324 328 329 330 328 326 324 323 323 326 320 319 319 317 317 318 321 322 324 325 325
166 197 191 192 185 179 192 221 199 221 228 224 218 210 245 260 250 253 292 333 339 330 329 338 354 349 339 334 331 329 328 330 329 322 325 330 331 333 331 324 322 328 332 328 322 316 316 317 315 316 320 326 329 330
243 192 181 188 197 214 216 200 197 221 230 207 157 207 210 213 250 311 324 322 326 318 340 352 349 342 342 341 340 336 337 338 334 334 335 334 335 335 334 333 334 336 333 331 328 320 314 312 312 318 322 320 319 325
236 235 195 184 213 226 224 217 228 229 222 191 196 220 242 273 298 310 315 312 345 14 4 359 358 350 351 346 344 344 342 342 340 339 334 332 336 339 339 340 342 342 340 336 334 328 321 315 311 307 307 312 318 323
261 203 212 214 205 229 244 219 243 259 268 261 266 277 287 301 299 231 164 78 9 359 359 353 349 348 347 344 340 340 345 346 343 334 329 326 325 332 338 341 341 340 337 335 335 336 336 331 325 322 321 322 326 329
258 225 242 232 252 255 269 283 288 285 285 280 281 268 267 203 142 108 28 1 353 345 342 342 344 349 346 344 341 337 336 342 338 336 332 326 329 333 335 338 338 334 337 340 341 341 340 339 339 337 336 335 334 334
253 230 253 272 282 295 310 305 297 283 288 301 303 330 108 143 126 5 355 348 342 343 351 348 345 345 345 341 339 338 333 334 337 337 338 334 333 334 339 333 334 339 342 344 346 347 350 353 356 357 359 3 7 10
273 268 254 283 293 302 316 327 280 296 283 305 3 60 100 81 94 11 354 349 350 346 347 343 343 345 345 348 346 342 340 341 341 342 338 340 338 340 336 339 342 344 345 349 351 354 358 2 9 15 22 28 35 45